Tracking 28081 objects as of 27-Sep-2023
HD Live streaming from Space Station
objects crossing your sky now

ARIANE 5 R/B

Track ARIANE 5 R/B now!


NORAD ID: 39218
Int'l Code: 2013-038D
Perigee: 205.8 km
Apogee: 29,217.5 km
Inclination: 2.9 °
Period: 507.7 minutes
Semi major axis: 21082 km
RCS: Unknown
Launch date: July 25, 2013
Source: France (FR)
Launch site: FRENCH GUIANA (FRGUI)

Note: This is a ROCKET BODY
Your satellite tracking list
Your tracking list is empty




NASA's NSSDC Master Catalog

Two Line Element Set (TLE):
1 39218U 13038D   23269.69557766  .00028801  00000-0  16742-2 0  9992
2 39218   2.9443  91.3120 6880490 118.0842 326.5338  2.83605851 94496
Source of the keplerian elements: AFSPC